Location: Unspecified
(33.2240°N, 0.0000°E)
Time: 19:10:18
(UTC+00:00)

deb Delta - Visible Passes

Search period start: 04 April 2026 00:00
Search period end: 14 April 2026 00:00
Orbit: 970 x 1435 km, 99.8° (Epoch: 29 March)

Date Brightness Start Highest point End Pass type
(mag) Time Alt. Az. Time Alt. Az. Time Alt. Az.
4 Apr ? 20:01:52 10° S 20:07:43 47° W 20:13:29 10° NNW visible
5 Apr ? 19:45:40 10° S 19:51:42 65° WSW 19:57:41 10° NNW visible
6 Apr ? 19:29:38 10° SSE 19:35:43 88° W 19:41:47 10° NNW visible
7 Apr ? 19:13:46 10° SSE 19:19:45 68° ENE 19:25:46 10° N visible
7 Apr ? 21:05:38 10° WSW 21:08:08 13° W 21:10:39 10° WNW visible
8 Apr ? 18:58:03 10° SE 19:03:50 50° ENE 19:09:39 10° N visible
8 Apr ? 20:47:58 10° SW 20:51:59 18° W 20:56:02 10° NW visible
9 Apr ? 18:42:31 10° SE 18:47:56 36° ENE 18:53:25 10° N visible
9 Apr ? 20:30:58 10° SSW 20:35:53 26° W 20:40:49 10° NW visible
10 Apr ? 20:14:20 10° SSW 20:19:47 36° W 20:25:19 10° NNW visible
11 Apr ? 19:57:56 10° S 20:03:43 49° W 20:09:37 10° NNW visible
12 Apr ? 19:41:43 10° S 19:47:41 68° WSW 19:53:48 10° NNW visible
13 Apr ? 19:25:41 10° SSE 19:31:41 88° ENE 19:37:52 10° NNW visible
